Tracking 22779 objects as of 12-Apr-2021
HD Live streaming from Space Station
objects crossing your sky now

INTELSAT 602

Track INTELSAT 602 now!
INTELSAT 602 is classified as:


NORAD ID: 20315
Int'l Code: 1989-087A
Perigee: 36,139.9 km
Apogee: 36,166.1 km
Inclination: 13.3 °
Period: 1,454.5 minutes
Semi major axis: 42523 km
RCS: 19.9526 m2 (large)
Launch date: October 27, 1989
Source: International Telecommunications Satellite Organization (ITSO)
Launch site: FRENCH GUIANA (FRGUI)

Inclined orbit; Indian Ocean region; C-band and Ku-band broadcasting.
aabbcc
Your satellite tracking list
Your tracking list is empty




NASA's NSSDC Master Catalog

Two Line Element Set (TLE):
1 20315U 89087A   21101.86732650 -.00000003  00000-0  00000-0 0  9999
2 20315  13.2690  20.8821 0003080  56.4598 158.4125  0.99003800112585
Source of the keplerian elements: AFSPC